Year,Month,Day,Hour,Minute,Value (Times are PST for temperature in C)
2014,08,03,00,00,19.50
2014,08,03,00,01,19.50
2014,08,03,00,02,19.50
2014,08,03,00,03,19.60
2014,08,03,00,04,19.60
2014,08,03,00,05,19.70
2014,08,03,00,06,19.70
2014,08,03,00,07,19.70
2014,08,03,00,08,19.70
2014,08,03,00,09,19.70
2014,08,03,00,10,19.70
2014,08,03,00,11,19.80
2014,08,03,00,12,19.80
2014,08,03,00,13,19.80
2014,08,03,00,14,19.80
2014,08,03,00,15,19.80
2014,08,03,00,16,19.80
2014,08,03,00,17,19.90
2014,08,03,00,18,19.90
2014,08,03,00,19,19.90
2014,08,03,00,20,19.90
2014,08,03,00,21,19.90
2014,08,03,00,22,19.90
2014,08,03,00,23,19.80
2014,08,03,00,24,19.80
2014,08,03,00,25,19.80
2014,08,03,00,26,19.80
2014,08,03,00,27,19.80
2014,08,03,00,28,19.70
2014,08,03,00,29,19.70
2014,08,03,00,30,19.60
2014,08,03,00,31,19.60
2014,08,03,00,32,19.60
2014,08,03,00,33,19.50
2014,08,03,00,34,19.50
2014,08,03,00,35,19.40
2014,08,03,00,36,19.40
2014,08,03,00,37,19.40
2014,08,03,00,38,19.30
2014,08,03,00,39,19.30
2014,08,03,00,40,19.30
2014,08,03,00,41,19.30
2014,08,03,00,42,19.30
2014,08,03,00,43,19.30
2014,08,03,00,44,19.30
2014,08,03,00,45,19.30
2014,08,03,00,46,19.30
2014,08,03,00,47,19.30
2014,08,03,00,48,19.20
2014,08,03,00,49,19.20
2014,08,03,00,50,19.20
2014,08,03,00,51,19.20
2014,08,03,00,52,19.20
2014,08,03,00,53,19.20
2014,08,03,00,54,19.20
2014,08,03,00,55,19.20
2014,08,03,00,56,19.10
2014,08,03,00,57,19.10
2014,08,03,00,58,19.10
2014,08,03,00,59,19.10
2014,08,03,01,00,19.10
2014,08,03,01,01,19.10
2014,08,03,01,02,19.10
2014,08,03,01,03,19.10
2014,08,03,01,04,19.10
2014,08,03,01,05,19.20
2014,08,03,01,06,19.30
2014,08,03,01,07,19.30
2014,08,03,01,08,19.40
2014,08,03,01,09,19.40
2014,08,03,01,10,19.40
2014,08,03,01,11,19.50
2014,08,03,01,12,19.60
2014,08,03,01,13,19.60
2014,08,03,01,14,19.60
2014,08,03,01,15,19.70
2014,08,03,01,16,19.70
2014,08,03,01,17,19.70
2014,08,03,01,18,19.70
2014,08,03,01,19,19.70
2014,08,03,01,20,19.70
2014,08,03,01,21,19.80
2014,08,03,01,22,19.80
2014,08,03,01,23,19.80
2014,08,03,01,24,19.80
2014,08,03,01,25,19.80
2014,08,03,01,26,19.80
2014,08,03,01,27,19.80
2014,08,03,01,28,19.80
2014,08,03,01,29,19.80
2014,08,03,01,30,19.90
2014,08,03,01,31,19.90
2014,08,03,01,32,19.90
2014,08,03,01,33,19.90
2014,08,03,01,34,19.90
2014,08,03,01,35,19.90
2014,08,03,01,36,19.90
2014,08,03,01,37,20.00
2014,08,03,01,38,20.00
2014,08,03,01,39,20.00
2014,08,03,01,40,20.00
2014,08,03,01,41,20.10
2014,08,03,01,42,20.10
2014,08,03,01,43,20.10
2014,08,03,01,44,20.10
2014,08,03,01,45,20.10
2014,08,03,01,46,20.10
2014,08,03,01,47,20.10
2014,08,03,01,48,20.10
2014,08,03,01,49,20.10
2014,08,03,01,50,20.10
2014,08,03,01,51,20.10
2014,08,03,01,52,20.10
2014,08,03,01,53,20.10
2014,08,03,01,54,20.00
2014,08,03,01,55,20.00
2014,08,03,01,56,20.00
2014,08,03,01,57,20.00
2014,08,03,01,58,20.00
2014,08,03,01,59,20.00
2014,08,03,02,00,20.00
2014,08,03,02,01,20.00
2014,08,03,02,02,19.90
2014,08,03,02,03,19.90
2014,08,03,02,04,19.90
2014,08,03,02,05,19.90
2014,08,03,02,06,19.80
2014,08,03,02,07,19.80
2014,08,03,02,08,19.80
2014,08,03,02,09,19.80
2014,08,03,02,10,19.70
2014,08,03,02,11,19.70
2014,08,03,02,12,19.70
2014,08,03,02,13,19.70
2014,08,03,02,14,19.70
2014,08,03,02,15,19.60
2014,08,03,02,16,19.60
2014,08,03,02,17,19.60
2014,08,03,02,18,19.60
2014,08,03,02,19,19.60
2014,08,03,02,20,19.60
2014,08,03,02,21,19.70
2014,08,03,02,22,19.70
2014,08,03,02,23,19.70
2014,08,03,02,24,19.70
2014,08,03,02,25,19.70
2014,08,03,02,26,19.70
2014,08,03,02,27,19.70
2014,08,03,02,28,19.70
2014,08,03,02,29,19.70
2014,08,03,02,30,19.70
2014,08,03,02,31,19.70
2014,08,03,02,32,19.70
2014,08,03,02,33,19.70
2014,08,03,02,34,19.70
2014,08,03,02,35,19.70
2014,08,03,02,36,19.70
2014,08,03,02,37,19.70
2014,08,03,02,38,19.70
2014,08,03,02,39,19.70
2014,08,03,02,40,19.70
2014,08,03,02,41,19.70
2014,08,03,02,42,19.70
2014,08,03,02,43,19.70
2014,08,03,02,44,19.60
2014,08,03,02,45,19.60
2014,08,03,02,46,19.60
2014,08,03,02,47,19.60
2014,08,03,02,48,19.50
2014,08,03,02,49,19.50
2014,08,03,02,50,19.50
2014,08,03,02,51,19.40
2014,08,03,02,52,19.40
2014,08,03,02,53,19.40
2014,08,03,02,54,19.30
2014,08,03,02,55,19.30
2014,08,03,02,56,19.30
2014,08,03,02,57,19.30
2014,08,03,02,58,19.30
2014,08,03,02,59,19.30
2014,08,03,03,00,19.30
2014,08,03,03,01,19.30
2014,08,03,03,02,19.30
2014,08,03,03,03,19.30
2014,08,03,03,04,19.30
2014,08,03,03,05,19.40
2014,08,03,03,06,19.40
2014,08,03,03,07,19.40
2014,08,03,03,08,19.40
2014,08,03,03,09,19.40
2014,08,03,03,10,19.40
2014,08,03,03,11,19.50
2014,08,03,03,12,19.50
2014,08,03,03,13,19.50
2014,08,03,03,14,19.50
2014,08,03,03,15,19.40
2014,08,03,03,16,19.40
2014,08,03,03,17,19.40
2014,08,03,03,18,19.50
2014,08,03,03,19,19.50
2014,08,03,03,20,19.50
2014,08,03,03,21,19.50
2014,08,03,03,22,19.60
2014,08,03,03,23,19.60
2014,08,03,03,24,19.60
2014,08,03,03,25,19.60
2014,08,03,03,26,19.60
2014,08,03,03,27,19.60
2014,08,03,03,28,19.60
2014,08,03,03,29,19.50
2014,08,03,03,30,19.50
2014,08,03,03,31,19.50
2014,08,03,03,32,19.50
2014,08,03,03,33,19.40
2014,08,03,03,34,19.40
2014,08,03,03,35,19.40
2014,08,03,03,36,19.40
2014,08,03,03,37,19.40
2014,08,03,03,38,19.40
2014,08,03,03,39,19.30
2014,08,03,03,40,19.30
2014,08,03,03,41,19.30
2014,08,03,03,42,19.30
2014,08,03,03,43,19.20
2014,08,03,03,44,19.20
2014,08,03,03,45,19.20
2014,08,03,03,46,19.20
2014,08,03,03,47,19.20
2014,08,03,03,48,19.20
2014,08,03,03,49,19.20
2014,08,03,03,50,19.10
2014,08,03,03,51,19.10
2014,08,03,03,52,19.10
2014,08,03,03,53,19.10
2014,08,03,03,54,19.10
2014,08,03,03,55,19.10
2014,08,03,03,56,19.00
2014,08,03,03,57,19.10
2014,08,03,03,58,19.10
2014,08,03,03,59,19.10
2014,08,03,04,00,19.10
2014,08,03,04,01,19.10
2014,08,03,04,02,19.10
2014,08,03,04,03,19.10
2014,08,03,04,04,19.10
2014,08,03,04,05,19.10
2014,08,03,04,06,19.10
2014,08,03,04,07,19.10
2014,08,03,04,08,19.00
2014,08,03,04,09,19.00
2014,08,03,04,10,19.00
2014,08,03,04,11,19.00
2014,08,03,04,12,19.00
2014,08,03,04,13,19.00
2014,08,03,04,14,19.00
2014,08,03,04,15,18.90
2014,08,03,04,16,18.90
2014,08,03,04,17,18.90
2014,08,03,04,18,18.90
2014,08,03,04,19,18.90
2014,08,03,04,20,18.90
2014,08,03,04,21,18.90
2014,08,03,04,22,18.90
2014,08,03,04,23,18.90
2014,08,03,04,24,18.90
2014,08,03,04,25,18.90
2014,08,03,04,26,18.90
2014,08,03,04,27,19.00
2014,08,03,04,28,19.00
2014,08,03,04,29,19.00
2014,08,03,04,30,19.00
2014,08,03,04,31,19.00
2014,08,03,04,32,19.00
2014,08,03,04,33,19.00
2014,08,03,04,34,19.00
2014,08,03,04,35,19.00
2014,08,03,04,36,19.00
2014,08,03,04,37,19.00
2014,08,03,04,38,19.00
2014,08,03,04,39,19.00
2014,08,03,04,40,19.00
2014,08,03,04,41,19.10
2014,08,03,04,42,19.10
2014,08,03,04,43,19.10
2014,08,03,04,44,19.10
2014,08,03,04,45,19.10
2014,08,03,04,46,19.10
2014,08,03,04,47,19.10
2014,08,03,04,48,19.10
2014,08,03,04,49,19.10
2014,08,03,04,50,19.10
2014,08,03,04,51,19.10
2014,08,03,04,52,19.10
2014,08,03,04,53,19.10
2014,08,03,04,54,19.10
2014,08,03,04,55,19.10
2014,08,03,04,56,19.10
2014,08,03,04,57,19.10
2014,08,03,04,58,19.00
2014,08,03,04,59,19.00
2014,08,03,05,00,19.00
2014,08,03,05,01,19.00
2014,08,03,05,02,19.00
2014,08,03,05,03,19.00
2014,08,03,05,04,19.00
2014,08,03,05,05,19.00
2014,08,03,05,06,19.00
2014,08,03,05,07,19.00
2014,08,03,05,08,19.00
2014,08,03,05,09,19.00
2014,08,03,05,10,18.90
2014,08,03,05,11,18.90
2014,08,03,05,12,18.90
2014,08,03,05,13,18.90
2014,08,03,05,14,18.90
2014,08,03,05,15,18.90
2014,08,03,05,16,18.90
2014,08,03,05,17,18.90
2014,08,03,05,18,18.80
2014,08,03,05,19,18.80
2014,08,03,05,20,18.80
2014,08,03,05,21,18.80
2014,08,03,05,22,18.80
2014,08,03,05,23,18.80
2014,08,03,05,24,18.70
2014,08,03,05,25,18.70
2014,08,03,05,26,18.70
2014,08,03,05,27,18.70
2014,08,03,05,28,18.70
2014,08,03,05,29,18.70
2014,08,03,05,30,18.60
2014,08,03,05,31,18.60
2014,08,03,05,32,18.50
2014,08,03,05,33,18.50
2014,08,03,05,34,18.50
2014,08,03,05,35,18.40
2014,08,03,05,36,18.40
2014,08,03,05,37,18.40
2014,08,03,05,38,18.30
2014,08,03,05,39,18.30
2014,08,03,05,40,18.30
2014,08,03,05,41,18.30
2014,08,03,05,42,18.30
2014,08,03,05,43,18.30
2014,08,03,05,44,18.30
2014,08,03,05,45,18.30
2014,08,03,05,46,18.20
2014,08,03,05,47,18.20
2014,08,03,05,48,18.20
2014,08,03,05,49,18.20
2014,08,03,05,50,18.20
2014,08,03,05,51,18.10
2014,08,03,05,52,18.10
2014,08,03,05,53,18.10
2014,08,03,05,54,18.10
2014,08,03,05,55,18.00
2014,08,03,05,56,18.00
2014,08,03,05,57,18.10
2014,08,03,05,58,18.10
2014,08,03,05,59,18.10
2014,08,03,06,00,18.10
2014,08,03,06,01,18.10
2014,08,03,06,02,18.10
2014,08,03,06,03,18.10
2014,08,03,06,04,18.10
2014,08,03,06,05,18.10
2014,08,03,06,06,18.10
2014,08,03,06,07,18.00
2014,08,03,06,08,18.00
2014,08,03,06,09,18.00
2014,08,03,06,10,17.90
2014,08,03,06,11,17.90
2014,08,03,06,12,17.90
2014,08,03,06,13,17.80
2014,08,03,06,14,17.80
2014,08,03,06,15,17.80
2014,08,03,06,16,17.70
2014,08,03,06,17,17.70
2014,08,03,06,18,17.70
2014,08,03,06,19,17.60
2014,08,03,06,20,17.60
2014,08,03,06,21,17.60
2014,08,03,06,22,17.50
2014,08,03,06,23,17.50
2014,08,03,06,24,17.50
2014,08,03,06,25,17.40
2014,08,03,06,26,17.40
2014,08,03,06,27,17.40
2014,08,03,06,28,17.40
2014,08,03,06,29,17.40
2014,08,03,06,30,17.40
2014,08,03,06,31,17.40
2014,08,03,06,32,17.40
2014,08,03,06,33,17.40
2014,08,03,06,34,17.40
2014,08,03,06,35,17.40
2014,08,03,06,36,17.50
2014,08,03,06,37,17.50
2014,08,03,06,38,17.50
2014,08,03,06,39,17.60
2014,08,03,06,40,17.60
2014,08,03,06,41,17.60
2014,08,03,06,42,17.60
2014,08,03,06,43,17.70
2014,08,03,06,44,17.70
2014,08,03,06,45,17.80
2014,08,03,06,46,17.80
2014,08,03,06,47,17.80
2014,08,03,06,48,17.90
2014,08,03,06,49,17.90
2014,08,03,06,50,18.00
2014,08,03,06,51,18.00
2014,08,03,06,52,18.10
2014,08,03,06,53,18.10
2014,08,03,06,54,18.20
2014,08,03,06,55,18.20
2014,08,03,06,56,18.30
2014,08,03,06,57,18.30
2014,08,03,06,58,18.40
2014,08,03,06,59,18.40
2014,08,03,07,00,18.50
2014,08,03,07,01,18.60
2014,08,03,07,02,18.60
2014,08,03,07,03,18.60
2014,08,03,07,04,18.70
2014,08,03,07,05,18.70
2014,08,03,07,06,18.80
2014,08,03,07,07,18.80
2014,08,03,07,08,18.90
2014,08,03,07,09,18.90
2014,08,03,07,10,18.90
2014,08,03,07,11,19.00
2014,08,03,07,12,19.00
2014,08,03,07,13,19.10
2014,08,03,07,14,19.10
2014,08,03,07,15,19.20
2014,08,03,07,16,19.20
2014,08,03,07,17,19.20
2014,08,03,07,18,19.30
2014,08,03,07,19,19.30
2014,08,03,07,20,19.30
2014,08,03,07,21,19.30
2014,08,03,07,22,19.30
2014,08,03,07,23,19.30
2014,08,03,07,24,19.40
2014,08,03,07,25,19.40
2014,08,03,07,26,19.40
2014,08,03,07,27,19.50
2014,08,03,07,28,19.50
2014,08,03,07,29,19.60
2014,08,03,07,30,19.60
2014,08,03,07,31,19.70
2014,08,03,07,32,19.70
2014,08,03,07,33,19.70
2014,08,03,07,34,19.80
2014,08,03,07,35,19.80
2014,08,03,07,36,19.80
2014,08,03,07,37,19.90
2014,08,03,07,38,19.90
2014,08,03,07,39,19.90
2014,08,03,07,40,20.00
2014,08,03,07,41,20.00
2014,08,03,07,42,20.00
2014,08,03,07,43,20.10
2014,08,03,07,44,20.10
2014,08,03,07,45,20.10
2014,08,03,07,46,20.10
2014,08,03,07,47,20.20
2014,08,03,07,48,20.20
2014,08,03,07,49,20.20
2014,08,03,07,50,20.20
2014,08,03,07,51,20.20
2014,08,03,07,52,20.20
2014,08,03,07,53,20.20
2014,08,03,07,54,20.20
2014,08,03,07,55,20.20
2014,08,03,07,56,20.20
2014,08,03,07,57,20.20
2014,08,03,07,58,20.30
2014,08,03,07,59,20.30
2014,08,03,08,00,20.30
2014,08,03,08,01,20.30
2014,08,03,08,02,20.30
2014,08,03,08,03,20.30
2014,08,03,08,04,20.30
2014,08,03,08,05,20.30
2014,08,03,08,06,20.30
2014,08,03,08,07,20.30
2014,08,03,08,08,20.40
2014,08,03,08,09,20.40
2014,08,03,08,10,20.40
2014,08,03,08,11,20.40
2014,08,03,08,12,20.40
2014,08,03,08,13,20.40
2014,08,03,08,14,20.50
2014,08,03,08,15,20.50
2014,08,03,08,16,20.60
2014,08,03,08,17,20.60
2014,08,03,08,18,20.60
2014,08,03,08,19,20.70
2014,08,03,08,20,20.70
2014,08,03,08,21,20.70
2014,08,03,08,22,20.80
2014,08,03,08,23,20.80
2014,08,03,08,24,20.80
2014,08,03,08,25,20.70
2014,08,03,08,26,20.70
2014,08,03,08,27,20.70
2014,08,03,08,28,20.70
2014,08,03,08,29,20.70
2014,08,03,08,30,20.60
2014,08,03,08,31,20.70
2014,08,03,08,32,20.70
2014,08,03,08,33,20.70
2014,08,03,08,34,20.70
2014,08,03,08,35,20.70
2014,08,03,08,36,20.70
2014,08,03,08,37,20.70
2014,08,03,08,38,20.70
2014,08,03,08,39,20.70
2014,08,03,08,40,20.80
2014,08,03,08,41,20.80
2014,08,03,08,42,20.80
2014,08,03,08,43,20.80
2014,08,03,08,44,20.90
2014,08,03,08,45,20.90
2014,08,03,08,46,20.90
2014,08,03,08,47,20.90
2014,08,03,08,48,20.90
2014,08,03,08,49,20.90
2014,08,03,08,50,20.90
2014,08,03,08,51,20.90
2014,08,03,08,52,21.00
2014,08,03,08,53,21.00
2014,08,03,08,54,21.10
2014,08,03,08,55,21.10
2014,08,03,08,56,21.20
2014,08,03,08,57,21.20
2014,08,03,08,58,21.30
2014,08,03,08,59,21.30
2014,08,03,09,00,21.30
2014,08,03,09,01,21.30
2014,08,03,09,02,21.20
2014,08,03,09,03,21.20
2014,08,03,09,04,21.20
2014,08,03,09,05,21.20
2014,08,03,09,06,21.20
2014,08,03,09,07,21.20
2014,08,03,09,08,21.30
2014,08,03,09,09,21.30
2014,08,03,09,10,21.40
2014,08,03,09,11,21.40
2014,08,03,09,12,21.50
2014,08,03,09,13,21.50
2014,08,03,09,14,21.40
2014,08,03,09,15,21.50
2014,08,03,09,16,21.50
2014,08,03,09,17,21.50
2014,08,03,09,18,21.50
2014,08,03,09,19,21.60
2014,08,03,09,20,21.60
2014,08,03,09,21,21.60
2014,08,03,09,22,21.60
2014,08,03,09,23,21.60
2014,08,03,09,24,21.70
2014,08,03,09,25,21.70
2014,08,03,09,26,21.80
2014,08,03,09,27,21.80
2014,08,03,09,28,21.90
2014,08,03,09,29,21.90
2014,08,03,09,30,22.00
2014,08,03,09,31,22.00
2014,08,03,09,32,22.10
2014,08,03,09,33,22.10
2014,08,03,09,34,22.20
2014,08,03,09,35,22.20
2014,08,03,09,36,22.30
2014,08,03,09,37,22.30
2014,08,03,09,38,22.40
2014,08,03,09,39,22.40
2014,08,03,09,40,22.50
2014,08,03,09,41,22.50
2014,08,03,09,42,22.50
2014,08,03,09,43,22.50
2014,08,03,09,44,22.40
2014,08,03,09,45,22.40
2014,08,03,09,46,22.30
2014,08,03,09,47,22.30
2014,08,03,09,48,22.30
2014,08,03,09,49,22.30
2014,08,03,09,50,22.20
2014,08,03,09,51,22.20
2014,08,03,09,52,22.10
2014,08,03,09,53,22.10
2014,08,03,09,54,22.10
2014,08,03,09,55,22.10
2014,08,03,09,56,22.20
2014,08,03,09,57,22.30
2014,08,03,09,58,22.30
2014,08,03,09,59,22.40
2014,08,03,10,00,22.50
2014,08,03,10,01,22.60
2014,08,03,10,02,22.60
2014,08,03,10,03,22.70
2014,08,03,10,04,22.60
2014,08,03,10,05,22.60
2014,08,03,10,06,22.50
2014,08,03,10,07,22.50
2014,08,03,10,08,22.40
2014,08,03,10,09,22.40
2014,08,03,10,10,22.40
2014,08,03,10,11,22.40
2014,08,03,10,12,22.30
2014,08,03,10,13,22.40
2014,08,03,10,14,22.40
2014,08,03,10,15,22.50
2014,08,03,10,16,22.60
2014,08,03,10,17,22.60
2014,08,03,10,18,22.70
2014,08,03,10,19,22.70
2014,08,03,10,20,22.60
2014,08,03,10,21,22.60
2014,08,03,10,22,22.60
2014,08,03,10,23,22.50
2014,08,03,10,24,22.40
2014,08,03,10,25,22.40
2014,08,03,10,26,22.40
2014,08,03,10,27,22.30
2014,08,03,10,28,22.30
2014,08,03,10,29,22.30
2014,08,03,10,30,22.30
2014,08,03,10,31,22.20
2014,08,03,10,32,22.20
2014,08,03,10,33,22.20
2014,08,03,10,34,22.20
2014,08,03,10,35,22.10
2014,08,03,10,36,22.10
2014,08,03,10,37,22.10
2014,08,03,10,38,22.10
2014,08,03,10,39,22.10
2014,08,03,10,40,22.20
2014,08,03,10,41,22.30
2014,08,03,10,42,22.30
2014,08,03,10,43,22.40
2014,08,03,10,44,22.40
2014,08,03,10,45,22.50
2014,08,03,10,46,22.50
2014,08,03,10,47,22.50
2014,08,03,10,48,22.60
2014,08,03,10,49,22.60
2014,08,03,10,50,22.70
2014,08,03,10,51,22.80
2014,08,03,10,52,22.80
2014,08,03,10,53,22.80
2014,08,03,10,54,22.80
2014,08,03,10,55,22.90
2014,08,03,10,56,22.90
2014,08,03,10,57,23.00
2014,08,03,10,58,23.10
2014,08,03,10,59,23.00
2014,08,03,11,00,23.00
2014,08,03,11,01,23.00
2014,08,03,11,02,22.90
2014,08,03,11,03,22.90
2014,08,03,11,04,22.90
2014,08,03,11,05,22.80
2014,08,03,11,06,22.80
2014,08,03,11,07,22.70
2014,08,03,11,08,22.70
2014,08,03,11,09,22.70
2014,08,03,11,10,22.70
2014,08,03,11,11,22.70
2014,08,03,11,12,22.70
2014,08,03,11,13,22.60
2014,08,03,11,14,22.60
2014,08,03,11,15,22.60
2014,08,03,11,16,22.50
2014,08,03,11,17,22.50
2014,08,03,11,18,22.40
2014,08,03,11,19,22.40
2014,08,03,11,20,22.40
2014,08,03,11,21,22.40
2014,08,03,11,22,22.50
2014,08,03,11,23,22.50
2014,08,03,11,24,22.50
2014,08,03,11,25,22.50
2014,08,03,11,26,22.50
2014,08,03,11,27,22.50
2014,08,03,11,28,22.40
2014,08,03,11,29,22.40
2014,08,03,11,30,22.50
2014,08,03,11,31,22.50
2014,08,03,11,32,22.50
2014,08,03,11,33,22.60
2014,08,03,11,34,22.60
2014,08,03,11,35,22.70
2014,08,03,11,36,22.80
2014,08,03,11,37,22.80
2014,08,03,11,38,22.90
2014,08,03,11,39,22.90
2014,08,03,11,40,23.00
2014,08,03,11,41,23.00
2014,08,03,11,42,23.00
2014,08,03,11,43,22.90
2014,08,03,11,44,22.90
2014,08,03,11,45,22.90
2014,08,03,11,46,22.80
2014,08,03,11,47,22.80
2014,08,03,11,48,22.80
2014,08,03,11,49,22.80
2014,08,03,11,50,22.70
2014,08,03,11,51,22.80
2014,08,03,11,52,22.80
2014,08,03,11,53,22.80
2014,08,03,11,54,22.80
2014,08,03,11,55,22.70
2014,08,03,11,56,22.70
2014,08,03,11,57,22.80
2014,08,03,11,58,22.80
2014,08,03,11,59,22.80
2014,08,03,12,00,22.80
2014,08,03,12,01,22.70
2014,08,03,12,02,22.60
2014,08,03,12,03,22.60
2014,08,03,12,04,22.60
2014,08,03,12,05,22.60
2014,08,03,12,06,22.60
2014,08,03,12,07,22.60
2014,08,03,12,08,22.70
2014,08,03,12,09,22.80
2014,08,03,12,10,22.90
2014,08,03,12,11,23.00
2014,08,03,12,12,23.00
2014,08,03,12,13,22.90
2014,08,03,12,14,22.90
2014,08,03,12,15,23.00
2014,08,03,12,16,23.10
2014,08,03,12,17,23.20
2014,08,03,12,18,23.30
2014,08,03,12,19,23.30
2014,08,03,12,20,23.40
2014,08,03,12,21,23.60
2014,08,03,12,22,23.70
2014,08,03,12,23,23.80
2014,08,03,12,24,23.80
2014,08,03,12,25,23.80
2014,08,03,12,26,23.80
2014,08,03,12,27,23.90
2014,08,03,12,28,23.90
2014,08,03,12,29,23.90
2014,08,03,12,30,23.90
2014,08,03,12,31,24.00
2014,08,03,12,32,24.00
2014,08,03,12,33,23.90
2014,08,03,12,34,23.80
2014,08,03,12,35,23.70
2014,08,03,12,36,23.60
2014,08,03,12,37,23.50
2014,08,03,12,38,23.40
2014,08,03,12,39,23.40
2014,08,03,12,40,23.30
2014,08,03,12,41,23.30
2014,08,03,12,42,23.20
2014,08,03,12,43,23.20
2014,08,03,12,44,23.10
2014,08,03,12,45,23.00
2014,08,03,12,46,23.00
2014,08,03,12,47,23.00
2014,08,03,12,48,23.00
2014,08,03,12,49,23.10
2014,08,03,12,50,23.20
2014,08,03,12,51,23.30
2014,08,03,12,52,23.40
2014,08,03,12,53,23.50
2014,08,03,12,54,23.60
2014,08,03,12,55,23.80
2014,08,03,12,56,24.00
2014,08,03,12,57,24.10
2014,08,03,12,58,24.30
2014,08,03,12,59,24.40
2014,08,03,13,00,24.60
2014,08,03,13,01,24.70
2014,08,03,13,02,24.80
2014,08,03,13,03,24.80
2014,08,03,13,04,24.90
2014,08,03,13,05,24.90
2014,08,03,13,06,25.00
2014,08,03,13,07,25.00
2014,08,03,13,08,25.10
2014,08,03,13,09,25.20
2014,08,03,13,10,25.30
2014,08,03,13,11,25.40
2014,08,03,13,12,25.40
2014,08,03,13,13,25.50
2014,08,03,13,14,25.60
2014,08,03,13,15,25.70
2014,08,03,13,16,25.80
2014,08,03,13,17,25.90
2014,08,03,13,18,25.90
2014,08,03,13,19,25.90
2014,08,03,13,20,26.00
2014,08,03,13,21,26.00
2014,08,03,13,22,26.10
2014,08,03,13,23,26.20
2014,08,03,13,24,26.20
2014,08,03,13,25,26.10
2014,08,03,13,26,26.10
2014,08,03,13,27,26.00
2014,08,03,13,28,25.90
2014,08,03,13,29,25.90
2014,08,03,13,30,25.90
2014,08,03,13,31,26.00
2014,08,03,13,32,26.10
2014,08,03,13,33,26.10
2014,08,03,13,34,26.10
2014,08,03,13,35,26.10
2014,08,03,13,36,26.10
2014,08,03,13,37,26.10
2014,08,03,13,38,26.20
2014,08,03,13,39,26.20
2014,08,03,13,40,26.20
2014,08,03,13,41,26.20
2014,08,03,13,42,26.10
2014,08,03,13,43,26.10
2014,08,03,13,44,26.10
2014,08,03,13,45,26.10
2014,08,03,13,46,26.10
2014,08,03,13,47,26.20
2014,08,03,13,48,26.30
2014,08,03,13,49,26.30
2014,08,03,13,50,26.30
2014,08,03,13,51,26.30
2014,08,03,13,52,26.30
2014,08,03,13,53,26.30
2014,08,03,13,54,26.30
2014,08,03,13,55,26.40
2014,08,03,13,56,26.50
2014,08,03,13,57,26.50
2014,08,03,13,58,26.50
2014,08,03,13,59,26.60
2014,08,03,14,00,26.60
2014,08,03,14,01,26.60
2014,08,03,14,02,26.60
2014,08,03,14,03,26.70
2014,08,03,14,04,26.70
2014,08,03,14,05,26.70
2014,08,03,14,06,26.80
2014,08,03,14,07,26.80
2014,08,03,14,08,26.80
2014,08,03,14,09,26.90
2014,08,03,14,10,26.80
2014,08,03,14,11,26.80
2014,08,03,14,12,26.80
2014,08,03,14,13,26.80
2014,08,03,14,14,26.90
2014,08,03,14,15,26.90
2014,08,03,14,16,26.90
2014,08,03,14,17,26.90
2014,08,03,14,18,26.90
2014,08,03,14,19,26.90
2014,08,03,14,20,26.90
2014,08,03,14,21,26.90
2014,08,03,14,22,27.00
2014,08,03,14,23,27.00
2014,08,03,14,24,27.00
2014,08,03,14,25,27.00
2014,08,03,14,26,27.10
2014,08,03,14,27,27.10
2014,08,03,14,28,27.20
2014,08,03,14,29,27.20
2014,08,03,14,30,27.20
2014,08,03,14,31,27.30
2014,08,03,14,32,27.40
2014,08,03,14,33,27.50
2014,08,03,14,34,27.50
2014,08,03,14,35,27.40
2014,08,03,14,36,27.30
2014,08,03,14,37,27.20
2014,08,03,14,38,27.20
2014,08,03,14,39,27.10
2014,08,03,14,40,27.10
2014,08,03,14,41,27.10
2014,08,03,14,42,27.10
2014,08,03,14,43,27.10
2014,08,03,14,44,27.00
2014,08,03,14,45,27.00
2014,08,03,14,46,27.00
2014,08,03,14,47,27.10
2014,08,03,14,48,27.20
2014,08,03,14,49,27.20
2014,08,03,14,50,27.20
2014,08,03,14,51,27.30
2014,08,03,14,52,27.30
2014,08,03,14,53,27.40
2014,08,03,14,54,27.50
2014,08,03,14,55,27.50
2014,08,03,14,56,27.60
2014,08,03,14,57,27.60
2014,08,03,14,58,27.60
2014,08,03,14,59,27.60
2014,08,03,15,00,27.60
2014,08,03,15,01,27.60
2014,08,03,15,02,27.50
2014,08,03,15,03,27.50
2014,08,03,15,04,27.40
2014,08,03,15,05,27.40
2014,08,03,15,06,27.40
2014,08,03,15,07,27.40
2014,08,03,15,08,27.40
2014,08,03,15,09,27.30
2014,08,03,15,10,27.30
2014,08,03,15,11,27.20
2014,08,03,15,12,27.20
2014,08,03,15,13,27.20
2014,08,03,15,14,27.20
2014,08,03,15,15,27.20
2014,08,03,15,16,27.20
2014,08,03,15,17,27.30
2014,08,03,15,18,27.30
2014,08,03,15,19,27.40
2014,08,03,15,20,27.50
2014,08,03,15,21,27.50
2014,08,03,15,22,27.40
2014,08,03,15,23,27.50
2014,08,03,15,24,27.60
2014,08,03,15,25,27.70
2014,08,03,15,26,27.80
2014,08,03,15,27,27.90
2014,08,03,15,28,28.00
2014,08,03,15,29,28.00
2014,08,03,15,30,28.10
2014,08,03,15,31,28.10
2014,08,03,15,32,28.00
2014,08,03,15,33,27.90
2014,08,03,15,34,27.90
2014,08,03,15,35,27.90
2014,08,03,15,36,27.90
2014,08,03,15,37,28.00
2014,08,03,15,38,28.00
2014,08,03,15,39,28.00
2014,08,03,15,40,28.10
2014,08,03,15,41,28.10
2014,08,03,15,42,28.20
2014,08,03,15,43,28.10
2014,08,03,15,44,28.10
2014,08,03,15,45,28.00
2014,08,03,15,46,27.80
2014,08,03,15,47,27.80
2014,08,03,15,48,27.70
2014,08,03,15,49,27.60
2014,08,03,15,50,27.50
2014,08,03,15,51,27.40
2014,08,03,15,52,27.30
2014,08,03,15,53,27.30
2014,08,03,15,54,27.20
2014,08,03,15,55,27.20
2014,08,03,15,56,27.20
2014,08,03,15,57,27.10
2014,08,03,15,58,27.10
2014,08,03,15,59,27.10
2014,08,03,16,00,27.20
2014,08,03,16,01,27.20
2014,08,03,16,02,27.20
2014,08,03,16,03,27.20
2014,08,03,16,04,27.20
2014,08,03,16,05,27.20
2014,08,03,16,06,27.30
2014,08,03,16,07,27.30
2014,08,03,16,08,27.40
2014,08,03,16,09,27.50
2014,08,03,16,10,27.50
2014,08,03,16,11,27.50
2014,08,03,16,12,27.50
2014,08,03,16,13,27.50
2014,08,03,16,14,27.40
2014,08,03,16,15,27.40
2014,08,03,16,16,27.40
2014,08,03,16,17,27.30
2014,08,03,16,18,27.30
2014,08,03,16,19,27.20
2014,08,03,16,20,27.20
2014,08,03,16,21,27.20
2014,08,03,16,22,27.10
2014,08,03,16,23,27.10
2014,08,03,16,24,27.00
2014,08,03,16,25,26.90
2014,08,03,16,26,26.90
2014,08,03,16,27,26.90
2014,08,03,16,28,27.00
2014,08,03,16,29,27.10
2014,08,03,16,30,27.10
2014,08,03,16,31,27.20
2014,08,03,16,32,27.20
2014,08,03,16,33,27.20
2014,08,03,16,34,27.20
2014,08,03,16,35,27.30
2014,08,03,16,36,27.20
2014,08,03,16,37,27.10
2014,08,03,16,38,27.00
2014,08,03,16,39,26.90
2014,08,03,16,40,26.90
2014,08,03,16,41,26.80
2014,08,03,16,42,26.80
2014,08,03,16,43,26.80
2014,08,03,16,44,26.70
2014,08,03,16,45,26.60
2014,08,03,16,46,26.50
2014,08,03,16,47,26.50
2014,08,03,16,48,26.40
2014,08,03,16,49,26.30
2014,08,03,16,50,26.20
2014,08,03,16,51,26.10
2014,08,03,16,52,26.10
2014,08,03,16,53,26.00
2014,08,03,16,54,25.90
2014,08,03,16,55,25.90
2014,08,03,16,56,25.90
2014,08,03,16,57,25.80
2014,08,03,16,58,25.60
2014,08,03,16,59,25.60
2014,08,03,17,00,25.60
2014,08,03,17,01,25.50
2014,08,03,17,02,25.40
2014,08,03,17,03,25.40
2014,08,03,17,04,25.30
2014,08,03,17,05,25.30
2014,08,03,17,06,25.30
2014,08,03,17,07,25.30
2014,08,03,17,08,25.30
2014,08,03,17,09,25.30
2014,08,03,17,10,25.20
2014,08,03,17,11,25.10
2014,08,03,17,12,25.10
2014,08,03,17,13,25.00
2014,08,03,17,14,25.00
2014,08,03,17,15,24.90
2014,08,03,17,16,24.90
2014,08,03,17,17,24.80
2014,08,03,17,18,24.80
2014,08,03,17,19,24.80